Flag for U.S.A. Weather past 2 weeks in Bristol, Tennessee, U.S.A.

Now
40 °F

Clear.


Feels Like: 40 °F
Forecast: 31 / 43 °F
Wind: No wind

Location: Abingdon-Southwest Abingdon

Current Time: Dec 19, 2014 at 6:09:32 PM

Latest Report: Dec 19, 2014 at 5:35 PM


Visibility: 10 mi

Pressure: 30.16 "Hg

Humidity: 56%

Dew point: 25 °F

Location of BristolLocation

Historic Weather in Bristol — Graph

°F

Bristol temperature yesterday

Maximum temperature yesterday: 41 °F (at 2:35 PM)
Minimum temperature yesterday: 28 °F (at 6:55 AM)
Average temperature yesterday: 35 °F

Past Weeks' High & Low Weather Summary

 TemperatureHumidityPressure
High61 °F (Dec 15, 2:55 PM)100% (Dec 6, 5:15 AM)30.45 "Hg (Dec 6, 5:15 AM)
Low23 °F (Dec 12, 6:55 AM)30% (Dec 15, 2:35 PM)29.89 "Hg (Dec 16, 4:15 AM)
Average39 °F75%30.16 "Hg
* Reported Dec 4 4:15 PM — Dec 19 4:55 PM, Bristol, Weather by CustomWeather, © 2014

Note: Actual official high and low records may vary slightly from our data, if they occured in-between our weather recording intervals... More about our weather records

Advertising

Bristol weather history for previous 24 hours

 ConditionsComfort  
Time TempWeatherWind HumidityBarometerVisibility
4:55 PM
Dec 19
41 °FSunny.No wind53%30.15 "Hg10 mi
4:15 PM42 °FSunny.No wind51%30.14 "Hg10 mi
3:55 PM42 °FSunny.No wind49%30.13 "Hg10 mi
3:35 PM42 °FSunny.No wind49%30.13 "Hg10 mi
3:15 PM42 °FSunny.3 mph48%30.13 "Hg10 mi
2:55 PM42 °FSunny.5 mph46%30.13 "Hg10 mi
2:35 PM42 °FSunny.No wind45%30.13 "Hg10 mi
2:15 PM42 °FSunny.3 mph46%30.14 "Hg10 mi
1:55 PM42 °FSunny.6 mph44%30.15 "Hg10 mi
1:15 PM42 °FSunny.6 mph42%30.15 "Hg10 mi
12:55 PM42 °FSunny.5 mph41%30.15 "Hg10 mi
12:35 PM42 °FSunny.No wind42%30.15 "Hg10 mi
12:15 PM42 °FSunny.5 mph43%30.15 "Hg10 mi
11:55 AM41 °FPartly sunny.5 mph42%30.16 "Hg10 mi
11:35 AM41 °FOvercast.5 mph42%30.16 "Hg10 mi
11:15 AM40 °FOvercast.No wind44%30.17 "Hg10 mi
10:55 AM39 °FOvercast.3 mph54%30.18 "Hg10 mi
10:35 AM39 °FOvercast.No wind55%30.18 "Hg10 mi
10:15 AM38 °FOvercast.No wind55%30.18 "Hg10 mi
9:55 AM37 °FOvercast.5 mph57%30.18 "Hg10 mi
9:35 AM36 °FOvercast.3 mph59%30.17 "Hg10 mi
9:15 AM36 °FOvercast.5 mph59%30.18 "Hg10 mi
8:55 AM36 °FOvercast.5 mph57%30.17 "Hg10 mi
8:35 AM36 °FOvercast.No wind56%30.17 "Hg10 mi
8:15 AM36 °FOvercast.5 mph55%30.17 "Hg10 mi
7:55 AM36 °FMore clouds than sun.3 mph53%30.16 "Hg10 mi
7:35 AM36 °FMore clouds than sun.6 mph50%30.16 "Hg10 mi
7:15 AM36 °FMostly cloudy.6 mph51%30.15 "Hg10 mi
6:55 AM36 °FOvercast.No wind53%30.14 "Hg10 mi
6:35 AM36 °FOvercast.5 mph54%30.14 "Hg10 mi
6:15 AM36 °FOvercast.3 mph56%30.13 "Hg10 mi
5:55 AM36 °FOvercast.3 mph59%30.13 "Hg10 mi
5:15 AM36 °FOvercast.No wind60%30.12 "Hg10 mi
4:55 AM36 °FOvercast.No wind58%30.12 "Hg10 mi
4:15 AM37 °FOvercast.3 mph60%30.12 "Hg10 mi
3:55 AM37 °FOvercast.8 mph60%30.12 "Hg10 mi
3:35 AM37 °FOvercast.3 mph64%30.12 "Hg10 mi
3:15 AM37 °FOvercast.5 mph64%30.13 "Hg10 mi
2:55 AM38 °FOvercast.6 mph64%30.13 "Hg10 mi
2:35 AM38 °FMostly cloudy.3 mph65%30.12 "Hg10 mi
2:15 AM38 °FOvercast.3 mph63%30.12 "Hg10 mi
1:55 AM38 °FOvercast.5 mph63%30.11 "Hg10 mi
1:15 AM39 °FMostly cloudy.5 mph58%30.12 "Hg10 mi
12:55 AM39 °FOvercast.3 mph61%30.12 "Hg10 mi
12:15 AM39 °FOvercast.No wind63%30.13 "Hg10 mi
11:55 PM
Dec 18
39 °FOvercast.3 mph64%30.12 "Hg10 mi
11:15 PM39 °FOvercast.No wind63%30.13 "Hg10 mi
10:35 PM39 °FOvercast.5 mph63%30.11 "Hg10 mi
10:15 PM39 °FOvercast.5 mph63%30.11 "Hg10 mi
9:55 PM39 °FOvercast.5 mph62%30.11 "Hg10 mi
9:15 PM39 °FOvercast.3 mph62%30.11 "Hg10 mi
8:55 PM39 °FOvercast.No wind62%30.11 "Hg10 mi
8:35 PM39 °FOvercast.5 mph62%30.11 "Hg10 mi
8:15 PM39 °FOvercast.6 mph62%30.11 "Hg10 mi
7:55 PM39 °FMostly cloudy.6 mph63%30.12 "Hg10 mi
7:35 PM39 °FOvercast.6 mph65%30.11 "Hg10 mi
7:15 PM40 °FOvercast.7 mph58%30.12 "Hg10 mi
6:55 PM40 °FOvercast.5 mph55%30.12 "Hg10 mi
6:35 PM39 °FOvercast.3 mph58%30.12 "Hg10 mi
6:15 PM40 °FOvercast.No wind54%30.12 "Hg10 mi
Weather by CustomWeather, © 2014

See weather overviewHow to use our weather pages